GW4151 Weather Reports


Display with metric or nautical units.
time (UTC)temp
F
wind
direction
speed
MPH
gust
MPH
rain 1hr
in
rain 24hr
in
rain mn
in
humidity
%
barometer
mb
20260901104027 72 192 2.0 3.0 0.00 0.00 0.00 96 993.6
20260901102523 72 228 1.0 2.0 0.00 0.00 0.00 97 993.7
20260901101019 72 193 2.0 2.0 0.00 0.00 0.00 97 993.6
20260901095517 72 187 1.0 1.0 0.00 0.00 0.00 98 993.5
20260901094015 72 178 0.0 0.0 0.00 0.00 0.00 98 993.5
20260901092512 72 188 0.0 0.0 0.00 0.00 0.00 98 993.6
20260901091009 72 194 0.0 0.0 0.00 0.00 0.00 98 993.5
20260901085506 72 197 0.0 0.0 0.00 0.00 0.00 97 993.3
20260901084006 73 193 0.0 1.0 0.00 0.00 0.00 96 993.2
20260901082505 73 214 0.0 1.0 0.00 0.00 0.00 96 993.4
20260901081002 73 195 0.0 0.0 0.00 0.00 0.00 96 993.5
20260901075457 74 191 0.0 0.0 0.00 0.00 0.00 96 993.4
20260901073952 74 187 1.0 3.0 0.00 0.00 0.00 95 993.3
20260901072449 74 190 1.0 1.0 0.00 0.00 0.00 95 993.3
20260901070949 75 188 0.0 2.0 0.00 0.00 0.00 94 993.2
20260901065445 75 194 1.0 3.0 0.00 0.00 0.00 94 993.5
20260901063945 75 168 1.0 1.0 0.00 0.00 0.00 94 993.3
20260901062444 74 206 0.0 0.0 0.00 0.00 0.00 95 993.5
20260901060942 74 191 0.0 1.0 0.00 0.00 0.00 94 993.6
20260901055440 75 197 0.0 0.0 0.00 0.00 0.00 93 993.4
20260901053935 75 193 0.0 1.0 0.00 0.00 0.00 92 993.7
20260901052432 76 227 1.0 1.0 0.00 0.00 0.00 92 993.7
20260901050927 76 220 2.0 2.0 0.00 0.00 0.00 91 993.6
20260901045423 76 211 2.0 3.0 0.00 0.00 0.00 90 993.6
20260901043922 76 221 2.0 3.0 0.00 0.00 0.00 89 993.6
20260901042418 77 203 2.0 3.0 0.00 0.00 0.00 89 993.6
20260901040913 76 230 2.0 3.0 0.00 0.00 0.00 88 993.7
20260901035412 75 188 0.0 1.0 0.00 0.24 0.24 91 993.8
20260901033912 74 199 0.0 0.0 0.00 0.24 0.24 92 994.0
20260901032409 75 196 0.0 1.0 0.00 0.24 0.24 91 993.8
20260901030906 75 47 0.0 0.0 0.00 0.24 0.24 90 993.9
20260901025401 76 198 0.0 1.0 0.00 0.24 0.24 88 993.6
20260901023900 76 210 2.0 2.0 0.00 0.24 0.24 87 993.2
20260901022358 77 198 2.0 4.0 0.00 0.24 0.24 86 993.1
20260901020855 77 125 3.0 6.0 0.00 0.24 0.24 86 993.3
20260901015352 76 216 3.0 4.0 0.00 0.24 0.24 87 993.6
20260901013848 77 193 1.0 3.0 0.00 0.24 0.24 85 994.0
20260901012346 78 174 2.0 4.0 0.00 0.24 0.24 83 993.3
20260901010842 77 209 1.0 2.0 0.00 0.24 0.24 84 993.6
20260901005343 78 194 1.0 2.0 0.00 0.24 0.24 83 993.4
20260901003838 78 175 2.0 3.0 0.00 0.24 0.24 81 993.4
20260901002337 79 190 0.0 4.0 0.00 0.24 0.24 81 993.3
20260901000834 79 221 2.0 4.0 0.00 0.24 0.24 80 993.2
20260831235330 80 242 3.0 4.0 0.00 0.24 0.24 80 993.3
20260831233826 81 226 2.0 6.0 0.00 0.24 0.24 78 993.3
20260831232324 81 214 3.0 6.0 0.00 0.24 0.24 77 992.9
20260831230823 82 213 4.0 6.0 0.00 0.24 0.24 78 993.1
20260831225318 81 239 3.0 6.0 0.00 0.24 0.24 78 993.4
20260831223815 81 205 6.0 8.0 0.00 0.24 0.24 77 993.2
20260831222315 82 193 1.0 3.0 0.00 0.24 0.24 77 992.5
20260831220811 83 190 3.0 7.0 0.00 0.24 0.24 74 992.6
20260831215309 84 157 4.0 7.0 0.00 0.24 0.24 71 992.9
20260831213804 85 205 4.0 8.0 0.00 0.24 0.24 68 992.9
20260831212306 87 180 4.0 8.0 0.00 0.24 0.24 63 992.8
20260831210803 85 182 4.0 10.0 0.00 0.24 0.24 67 992.8
20260831205305 83 240 2.0 6.0 0.00 0.24 0.24 71 992.8
20260831203800 80 139 6.0 11.0 0.35 0.24 0.24 77 992.6
20260831202300 80 254 4.0 8.0 0.14 0.18 0.18 80 993.1
20260831200800 80 200 1.0 6.0 0.00 0.16 0.16 83 993.2
20260831195258 80 205 2.0 3.0 0.00 0.16 0.16 87 993.2
20260831193754 78 181 2.0 4.0 0.00 0.16 0.16 91 992.7
20260831192251 77 182 0.0 1.0 0.07 0.13 0.13 93 993.8
20260831190750 77 185 1.0 1.0 0.17 0.12 0.12 93 993.5
20260831185246 78 172 2.0 4.0 0.07 0.02 0.02 86 993.9
20260831183741 79 172 2.0 2.0 0.00 0.01 0.01 84 993.9
20260831182241 80 164 0.0 0.0 0.00 0.01 0.01 79 994.2
20260831180737 80 208 0.0 2.0 0.00 0.01 0.01 76 994.0
20260831175233 81 223 2.0 4.0 0.00 0.01 0.01 74 993.9
20260831173729 81 154 2.0 4.0 0.00 0.01 0.01 75 994.3
20260831172225 83 170 4.0 10.0 0.00 0.01 0.01 73 994.2
20260831170725 84 222 5.0 8.0 0.00 0.01 0.01 70 994.2
20260831165225 82 227 3.0 4.0 0.00 0.01 0.01 73 994.5
20260831163723 80 210 4.0 7.0 0.00 0.01 0.01 76 994.9
20260831162223 79 257 3.0 7.0 0.00 0.01 0.01 80 995.0
20260831160720 78 174 2.0 4.0 0.00 0.01 0.01 82 995.1
20260831155216 76 289 3.0 9.0 0.00 0.01 0.01 86 995.1
20260831153712 74 208 4.0 7.0 0.00 0.01 0.01 90 995.4
20260831152212 73 202 2.0 4.0 0.00 0.01 0.01 91 995.5
20260831150707 72 180 1.0 2.0 0.00 0.01 0.01 93 995.3
20260831145203 73 157 4.0 6.0 0.05 0.01 0.01 91 995.5
20260831143659 73 151 2.0 3.0 0.00 0.00 0.00 89 996.1
20260831142158 74 129 2.0 3.0 0.00 0.00 0.00 85 995.7
20260831140658 75 176 2.0 4.0 0.00 0.00 0.00 84 995.0
20260831135158 74 155 4.0 9.0 0.00 0.00 0.00 84 995.2
20260831133654 73 164 1.0 4.0 0.00 0.00 0.00 87 995.4
20260831132150 74 214 5.0 8.0 0.00 0.00 0.00 87 995.2
20260831130648 72 180 1.0 3.0 0.00 0.00 0.00 90 995.4
20260831125143 73 221 2.0 2.0 0.00 0.00 0.00 89 995.4
20260831123641 73 165 2.0 4.0 0.00 0.00 0.00 86 995.7
20260831122136 73 180 2.0 7.0 0.00 0.00 0.00 87 995.4
20260831120632 73 171 2.0 4.0 0.00 0.00 0.00 87 995.5
20260831115130 72 200 0.0 2.0 0.00 0.00 0.00 89 995.3
20260831113630 71 145 2.0 4.0 0.00 0.00 0.00 91 994.9
20260831112125 70 130 6.0 8.0 0.00 0.00 0.00 92 994.7
20260831110624 68 138 0.0 0.0 0.00 0.00 0.00 96 994.5
20260831105119 68 143 1.0 2.0 0.00 0.00 0.00 97 994.3